Tracking 32938 objects as of 14-Jan-2026
HD Live streaming from Space Station
objects crossing your sky now

XSS 10

Track XSS 10 now!
10-day predictions
XSS 10 is classified as:


NORAD ID: 27664
Int'l Code: 2003-005B
Perigee: 503.5 km
Apogee: 711.1 km
Inclination: 39.7 °
Period: 96.7 minutes
Semi major axis: 6978 km
RCS: 0.183 m2 (medium)
Launch date: January 29, 2003
Source: United States (US)
Launch site: AIR FORCE EASTERN TEST RANGE (AFETR)
Your satellite tracking list
Your tracking list is empty




NASA's NSSDC Master Catalog

Two Line Element Set (TLE):
1 27664U 03005B   26013.29315071  .00002428  00000-0  21839-3 0  9995
2 27664  39.7442 236.1275 0148743  69.6531 292.0166 14.89273659239520
Source of the keplerian elements: AFSPC